Back to catalog

COSMOS 1481 DEB

AliveHEO
NORAD 14192·DEBRIS·🇷🇺 Russia

Launched Jul 8, 1983 from Plesetsk Cosmodrome

Loading…

Next Passes (next 24 hours)

TLE

FreshSource: Space-Track

Epoch: Sep 9, 2026, 15:04 UTC

1 14192U 83070E   26252.62810734  .00000792  00000-0  00000-0 0  9991
2 14192  70.4231 231.6077 5636769 231.9686 348.8212  2.03132555241336

Track COSMOS 1481 DEB in real time with AllMySat

Download on the App Store